This is the latest recevied weather packets stored in our database for station/object JF2ZGN-13. If no packets are shown the sender has not sent any weather packets the latest 10 day(s).
| Time | Temp. | Humidity | Pressure | Rain* | Wind** | Luminosity | Snow |
|---|---|---|---|---|---|---|---|
| 1777961206 | 12.78° C | 47% | 912.9 hPa | 0 mm | - | - | - |
| 1777960605 | 12.78° C | 44% | 912.5 hPa | 0 mm | - | - | - |
| 1777960005 | 12.78° C | 49% | 912.6 hPa | 0 mm | - | - | - |
| 1777959404 | 12.78° C | 52% | 912.7 hPa | 0 mm | - | - | - |
| 1777958804 | 12.78° C | 54% | 912.6 hPa | 0 mm | - | - | - |
| 1777958203 | 12.78° C | 50% | 912.5 hPa | 0 mm | - | - | - |
| 1777957603 | 12.78° C | 51% | 912.6 hPa | 0 mm | - | - | - |
| 1777957003 | 12.78° C | 47% | 912.4 hPa | 0 mm | - | - | - |
| 1777956402 | 13.33° C | 44% | 912.5 hPa | 0 mm | - | - | - |
| 1777955801 | 13.33° C | 41% | 912.3 hPa | 0 mm | - | - | - |
| 1777955201 | 13.33° C | 41% | 912.4 hPa | 0 mm | - | - | - |
| 1777954599 | 13.33° C | 44% | 912.2 hPa | 0 mm | - | - | - |
| 1777953998 | 13.89° C | 44% | 912.3 hPa | 0 mm | - | - | - |
| 1777953398 | 13.33° C | 43% | 912.3 hPa | 0 mm | - | - | - |
| 1777952797 | 13.89° C | 43% | 912.3 hPa | 0 mm | - | - | - |
| 1777952197 | 13.89° C | 43% | 912.1 hPa | 0 mm | - | - | - |
| 1777951596 | 13.89° C | 45% | 912.1 hPa | 0 mm | - | - | - |
| 1777950996 | 13.89° C | 44% | 912.2 hPa | 0 mm | - | - | - |
| 1777950396 | 13.33° C | 40% | 912.1 hPa | 0 mm | - | - | - |
| 1777949795 | 14.44° C | 38% | 912 hPa | 0 mm | - | - | - |
| 1777949196 | 13.89° C | 44% | 911.9 hPa | 0 mm | - | - | - |
| 1777948594 | 13.89° C | 43% | 911.9 hPa | 0 mm | - | - | - |
| 1777947994 | 13.89° C | 42% | 911.8 hPa | 0 mm | - | - | - |
| 1777947393 | 14.44° C | 42% | 911.8 hPa | 0 mm | - | - | - |
| 1777946793 | 14.44° C | 44% | 911.6 hPa | 0 mm | - | - | - |
* Rain since midnight (hover to see other rain measurements)
** Current wind speed in m/s (hover to see current wind gust speed)